THORAD DELTA 1 DEB, 13528

Orbit data source: Space-Track

THORAD DELTA 1 DEB, 13528 is space debris in LEO originally from a launch on Fri, 15 Nov 1974 UTC launched from the Air Force Western Test Range (AFWTR). Debris objects in space refer to the collection of defunct objects orbiting the Earth. Examples of debris include non-operational satellites, rocket bodies, and fragments generated from explosions, collisions, or faulty payload assembly.

Loading next visibility...
Identifier
13528, 1974-089EP
Orbit
LEO
Country
Flag of USUS
Related business
Manufacturer
Unknown
Mission
Spacecraft
Bus & Motor
Unknown
Mass
Unknown
Launch date (UTC)
1974-11-15 (51 years ago)
Launch vehicle
Unknown
Launch site
Air Force Western Test Range (AFWTR)
Object type
Payload
Rocket body
Debris
Shape & HBR
Unknown shape, 0.1 m
Radar Cross Section
Small (<0.1 m²)

Expand to show TLE details & history
Last TLE update: 14 hours ago

TLE from 14 hours ago
0 THORAD DELTA 1 DEB
1 13528U 74089EP  26129.97196249  .00000395  00000-0  19727-2 0  9999
2 13528 103.1415 139.1484 0079867 142.2373 277.6161 12.79444891124876
Epoch: 2026-05-09T23:19Z
TLE epoch observation values (Epoch: 2026-05-09T23:19:37.559Z)
Latitude
56.6335°
Longitude
-99.19623°
Altitude
1,345.234 km
Speed
7.194 km/s
True Right ascension
07h 53m 58s
True Declination
56° 29' 15"
Sunlit
Object was in daylight at epoch
Visualization orbit readout
Latitude
Unknown
Longitude
Unknown
Altitude
Unknown
Speed
Unknown
Apparent Right ascension
Unknown
Apparent Declination
Unknown
Sunlit
N/A
Visualization observer readout
Local Sidereal Time
21:11:47
Azimuth
Unknown
Elevation
Unknown
Doppler factor
Unknown
Orbital elements
Apogee altitude
1,402.951 km
Perigee altitude
1,279.645 km
Semi-major axis
7,719.435 km
Eccentricity
0.00799
Inclination
103.1415°
RAAN
139.1484°
Arg. of periapsis
142.2373°
True anomaly
276.7078°
Mean anomaly
277.6161°
Eccentric anomaly
277.16207°
Mean motion
3.20011 °/min
Orbital period
112.5 mins
BSTAR
0.0019727
Loading maneuver chart data...
Computing Atmospheric mass density...

Documentation

Showing up to 5 results
|